Regional Weather Roundup
Issued by NWS

Home | Current Version | Previous Version | Graphics & Text | Print | Product List | Glossary On
Versions: 1 2 3 4 5 6 7 8 9 10 11 12 13 14 15 16 17 18 19 20 21 22 23 24 25 26 27 28 29 30 31 32 33 34 35 36 37 38 39 40 41 42 43 44 45 46 47 48 49 50
000
ASUS43 KLMK 280302
RWRKY
KENTUCKY REGIONAL WEATHER ROUNDUP
NATIONAL WEATHER SERVICE LOUISVILLE KY
1100 PM EDT WED AUG 27 2014

NOTE "FAIR" INDICATES FEW OR NO CLOUDS BELOW 12,000 FEET
WITH NO SIGNIFICANT WEATHER AND/OR OBSTRUCTIONS TO VISIBILITY.

KYZ001>023-026-027-061>063-070>075-280400-
WESTERN AND SOUTH CENTRAL KENTUCKY

CITY           SKY/WX    TMP DP  RH WIND       PRES   REMARKS
PADUCAH        MOCLDY    78  71  79 CALM      30.05R
HENDERSON      MOCLDY    77  70  78 CALM      30.05S
OWENSBORO      PTCLDY    81  71  71 E7        30.06R
HOPKINSVILLE   PTCLDY    79  73  82 VRB1      30.06R
BOWLING GREEN  MOCLDY    79  71  76 CALM      30.06F
GLASGOW        MOCLDY    75  68  80 CALM      30.07S
$$

KYZ024-025-028>034-038-045-046-053-280400-
NORTH CENTRAL KENTUCKY

CITY           SKY/WX    TMP DP  RH WIND       PRES   REMARKS
LOUISVILLE/SDF PTCLDY    75  71  87 CALM      30.05S
LOUISVILLE/LOU PTCLDY    75  72  90 CALM      30.05S
FORT KNOX      PTCLDY    72  72 100 NW3       30.05S
$$

KYZ035>037-039>044-047>052-055>060-089>105-280400-
NORTHEAST KENTUCKY

CITY           SKY/WX    TMP DP  RH WIND       PRES   REMARKS
LEXINGTON      CLOUDY    72  68  87 CALM      30.08R
COVINGTON      PTCLDY    79  71  76 N7        30.06R
FRANKFORT      CLOUDY    71  70  96 N3        30.06R
$$

KYZ054-064>069-076>088-106>120-280400-
SOUTHEAST KENTUCKY

CITY           SKY/WX    TMP DP  RH WIND       PRES   REMARKS
JACKSON        MOCLDY    75  68  78 CALM      30.09R
LONDON         CLEAR     75  69  81 CALM      30.09R
SOMERSET       CLOUDY    73  72  94 CALM      30.09R
MIDDLESBORO    CLEAR     69  65  87 CALM      30.10R
MONTICELLO     CLEAR     72  71  96 CALM      30.10R FOG
$$



USA.gov is the U.S. government's official web portal to all federal, state and local government web resources and services.